[[{"header":{"parameterUnit":"m.s-1","parameterCategory":1,"la1":30.2991,"la2":30.254,"lo1":-89.0895,"lo2":-89.0444,"dy":0.0017,"dx":0.0017,"nx":28,"ny":28,"refTime":"2025-09-07T09:00:00:Z","depth":0,"parameterNumber":2,"parameterNumberName":"U-component_of_WINDS"},"data":[0,0,0,0,0,0,0,0,0,0,0,0,0,0,0,0,0,0,0,0,0,0,0,0,0,0,0,0,0,0,0,0,0,0,0,0,0,0,0,0,0,0,0,0,0,0,0,0,0,0,0,0,0,0,0,0,0,0,-1.2128,-1.2128,0,-1.2111,-1.2111,-1.2111,-1.2041,-1.2039,-1.2038,-1.2036,-1.2021,-1.2022,-1.2023,0,0,0,0,0,0,0,0,0,0,0,0,0,-1.2102,-1.2102,-1.2128,-1.2128,-1.2128,-1.2111,-1.2111,-1.2111,-1.2041,-1.2039,-1.2037,-1.2035,-1.2021,-1.2022,-1.2023,0,0,0,0,0,0,0,0,0,0,0,0,0,-1.2102,-1.2103,-1.2128,-1.2091,-1.2088,-1.2111,-1.2111,-1.2111,-1.2042,-1.2039,-1.2037,-1.2034,-1.202,-1.2022,-1.2023,-1.2083,0,0,-1.2029,-1.2029,0,0,0,0,0,0,0,0,-1.2102,-1.2103,-1.2097,-1.2094,-1.209,-1.2076,-1.2096,-1.2101,-1.2042,-1.2059,-1.2036,-1.2033,-1.2041,-1.2041,-1.2043,-1.2082,-1.2081,-1.2029,-1.203,-1.203,-1.2031,0,0,0,0,0,0,0,-1.2102,-1.2103,-1.2122,-1.2097,-1.2093,-1.2076,-1.2073,-1.2097,-1.2064,-1.2057,-1.2052,-1.2051,-1.2039,-1.2042,-1.2042,-1.2081,-1.2029,-1.203,-1.2031,-1.2032,-1.2166,-1.2169,0,0,0,0,0,0,-1.2107,-1.2104,-1.2122,-1.2121,-1.209,-1.2078,-1.2075,-1.2083,-1.2064,-1.2058,-1.2053,-1.2048,-1.204,-1.2041,-1.2042,-1.211,-1.203,-1.2032,-1.2033,-1.2164,-1.2167,-1.217,0,0,0,0,0,0,-1.2107,-1.2109,-1.2123,-1.2111,-1.2111,-1.2081,-1.209,-1.2084,-1.2087,-1.206,-1.2055,-1.2062,-1.2038,-1.2039,-1.2073,-1.2108,-1.2033,-1.2034,-1.2161,-1.2165,-1.2168,-1.2246,0,0,0,0,0,0,-1.2106,-1.211,-1.2132,-1.2112,-1.2112,-1.2154,-1.2092,-1.2085,-1.2089,-1.2082,-1.2067,-1.2063,-1.2036,-1.207,-1.2074,-1.2109,-1.2036,-1.2158,-1.2163,-1.2167,-1.224,-1.2252,-1.2262,0,0,0,0,0,-1.2106,-1.2155,-1.2133,-1.2136,-1.2139,-1.2156,-1.2157,-1.2125,-1.2093,-1.2115,-1.2098,-1.2063,-1.2103,-1.2075,-1.2078,-1.2114,-1.2155,-1.2161,-1.2167,-1.2236,-1.225,-1.2262,0,0,0,0,0,0,-1.2182,-1.2152,-1.2128,-1.2172,-1.2167,-1.2145,-1.2172,-1.2142,-1.2146,-1.214,-1.2101,-1.2098,-1.2137,-1.2128,-1.2097,-1.217,-1.2123,-1.213,-1.2174,-1.2188,-1.2199,-1.2201,-1.2037,0,0,0,0,0,-1.2203,-1.2219,-1.2192,-1.2234,-1.2233,-1.2203,-1.2209,-1.2185,-1.2179,-1.2177,-1.2162,-1.2158,-1.2169,-1.2178,-1.2187,-1.2238,-1.2234,-1.2264,-1.2275,-1.2285,-1.2292,-1.2318,-1.2331,-1.2189,-1.2189,-1.2189,0,0,-1.2249,-1.2234,-1.2247,-1.2249,-1.2243,-1.226,-1.2202,-1.2223,-1.2236,-1.218,-1.221,-1.2199,-1.2192,-1.2234,-1.2252,-1.2229,-1.2329,-1.2292,-1.2299,-1.2301,-1.2325,-1.2339,-1.2351,-1.2193,-1.2192,-1.2191,0,0,-1.2341,-1.2332,-1.2365,-1.2359,-1.2349,-1.2328,-1.2336,-1.2318,-1.2308,-1.2338,-1.2296,-1.231,-1.2331,-1.2327,-1.2328,-1.2417,-1.2385,-1.242,-1.2479,-1.2505,-1.2516,-1.2526,-1.2558,-1.257,-1.2427,-1.2427,-1.2427,0,-1.2399,-1.2424,-1.2387,-1.241,-1.2412,-1.2361,-1.2395,-1.2391,-1.2385,-1.2388,-1.236,-1.2384,-1.2376,-1.2417,-1.2438,-1.244,-1.2448,-1.2423,-1.2517,-1.2527,-1.2535,-1.2566,-1.2578,-1.2432,-1.2431,-1.2431,-1.243,0,-1.2496,-1.2513,-1.2542,-1.2536,-1.2541,-1.257,-1.2537,-1.2547,-1.2521,-1.2504,-1.2534,-1.2521,-1.2527,-1.2534,-1.251,-1.2571,-1.2557,-1.2524,-1.2477,-1.2554,-1.2582,-1.2593,-1.2438,-1.2436,-1.2435,-1.2434,0,0,-1.2638,-1.261,-1.2621,-1.2617,-1.2601,-1.2614,-1.264,-1.2644,-1.2654,-1.265,-1.2672,-1.2689,-1.2658,-1.2659,-1.2634,-1.2657,-1.2728,-1.2621,-1.262,-1.2642,-1.2795,-1.2821,-1.2835,-1.2706,-1.2708,-1.2709,-1.2796,0,-1.2727,-1.2769,-1.2736,-1.2785,-1.28,-1.275,-1.2773,-1.2765,-1.2749,-1.276,-1.2741,-1.2755,-1.2713,-1.2713,-1.2733,-1.2715,-1.2758,-1.2708,-1.2726,-1.2727,-1.2731,-1.2849,-1.2877,-1.2959,-1.2806,-1.2808,-1.2809,0,-1.2837,-1.2837,-1.2888,-1.2867,-1.2872,-1.2893,-1.2894,-1.2904,-1.2895,-1.2881,-1.2881,-1.2849,-1.2873,-1.2825,-1.2858,-1.2825,-1.283,-1.2822,-1.2824,-1.2826,-1.2774,-1.2855,-1.2984,-1.2997,-1.2826,-1.2824,-1.2823,0,-1.2937,-1.295,-1.2981,-1.2979,-1.2956,-1.2972,-1.2963,-1.2951,-1.2955,-1.2955,-1.2958,-1.2961,-1.2964,-1.2967,-1.2937,-1.2905,-1.2974,-1.2924,-1.2964,-1.2965,-1.2983,-1.2982,-1.3115,-1.2983,-1.2983,-1.2983,-1.2983,0,-1.304,-1.3073,-1.3026,-1.3045,-1.308,-1.3041,-1.3077,-1.3063,-1.3052,-1.3068,-1.3024,-1.3041,-1.2999,-1.3011,-1.2987,-1.3018,-1.3019,-1.3009,-1.3003,-1.3014,-1.3016,-1.3018,-1.3012,-1.2986,-1.2985,-1.2985,-1.2984,0,-1.3159,-1.3128,-1.3159,-1.3134,-1.3128,-1.3155,-1.3133,-1.3151,-1.313,-1.3151,-1.3153,-1.3122,-1.3133,-1.3102,-1.311,-1.3094,-1.3139,-1.3122,-1.3142,-1.3138,-1.318,-1.3177,-1.3321,-1.3338,-1.3194,-1.3196,-1.3197,0,-1.3228,-1.3252,-1.3228,-1.3235,-1.3228,-1.3241,-1.3244,-1.3205,-1.3211,-1.3201,-1.3219,-1.3227,-1.3231,-1.3251,-1.3229,-1.3234,-1.3219,-1.3269,-1.3219,-1.323,-1.3221,-1.322,-1.3223,-1.328,-1.3281,-1.3283,-1.3284,0,-1.3354,-1.3337,-1.3343,-1.3344,-1.3349,-1.3348,-1.3344,-1.3353,-1.3311,-1.3319,-1.333,-1.3333,-1.3339,-1.3348,-1.3347,-1.3338,-1.3305,-1.3299,-1.3309,-1.3322,-1.3333,-1.3328,-1.3171,-1.3297,-1.3295,-1.3295,-1.3294,-1.3293,-1.3451,-1.3469,-1.3455,-1.3464,-1.3456,-1.3453,-1.3467,-1.3447,-1.3455,-1.3457,-1.3433,-1.3449,-1.3437,-1.3433,-1.3427,-1.3439,-1.3416,-1.343,-1.3434,-1.3438,-1.3446,-1.3329,-1.3438,-1.3438,-1.3438,-1.3437,-1.3437,0,-1.3576,-1.3563,-1.3571,-1.3566,-1.3572,-1.3538,-1.3531,-1.3539,-1.3553,-1.3544,-1.3548,-1.356,-1.3567,-1.3545,-1.3549,-1.3562,-1.3547,-1.3565,-1.3564,-1.3563,-1.3466,-1.3457,-1.3577,-1.3577,-1.3577,-1.3577,-1.3577,-1.3577,-1.3641,-1.3671,-1.3652,-1.3677,-1.3664,-1.3678,-1.3678,-1.3674,-1.3667,-1.3682,-1.3687,-1.3672,-1.3657,-1.366,-1.3665,-1.3658,-1.3662,-1.3685,-1.3673,-1.3583,-1.357,-1.3557,-1.3549,-1.3686,-1.3686,-1.377,-1.377,-1.3771]},{"header":{"parameterUnit":"m.s-1","parameterCategory":1,"la1":30.2991,"la2":30.254,"lo1":-89.0895,"lo2":-89.0444,"dy":0.0017,"dx":0.0017,"nx":28,"ny":28,"refTime":"2025-09-07T09:00:00:Z","depth":0,"parameterNumber":3,"parameterNumberName":"V-component_of_WINDS"},"data":[0,0,0,0,0,0,0,0,0,0,0,0,0,0,0,0,0,0,0,0,0,0,0,0,0,0,0,0,0,0,0,0,0,0,0,0,0,0,0,0,0,0,0,0,0,0,0,0,0,0,0,0,0,0,0,0,0,0,-5.6085,-5.6085,0,-5.614,-5.6141,-5.6141,-5.6085,-5.6083,-5.6081,-5.6079,-5.613,-5.6133,-5.6136,0,0,0,0,0,0,0,0,0,0,0,0,0,-5.5924,-5.5927,-5.6085,-5.6086,-5.6086,-5.614,-5.6141,-5.6142,-5.6086,-5.6083,-5.608,-5.6078,-5.6128,-5.6132,-5.6136,0,0,0,0,0,0,0,0,0,0,0,0,0,-5.5988,-5.5929,-5.6085,-5.6065,-5.6064,-5.614,-5.6141,-5.6142,-5.6086,-5.6083,-5.608,-5.6076,-5.6127,-5.6132,-5.6137,-5.6234,0,0,-5.6153,-5.6155,0,0,0,0,0,0,0,0,-5.5985,-5.5994,-5.6067,-5.6066,-5.6065,-5.6103,-5.6103,-5.6172,-5.6087,-5.6077,-5.6079,-5.6075,-5.6123,-5.6128,-5.6145,-5.6236,-5.6238,-5.6153,-5.6156,-5.6158,-5.616,0,0,0,0,0,0,0,-5.598,-5.5991,-5.6106,-5.6068,-5.6067,-5.6051,-5.6057,-5.6116,-5.6117,-5.6078,-5.6074,-5.6082,-5.6122,-5.6141,-5.6146,-5.6239,-5.6153,-5.6157,-5.616,-5.6162,-5.6411,-5.6414,0,0,0,0,0,0,-5.5979,-5.5988,-5.6105,-5.6108,-5.6016,-5.6057,-5.6063,-5.6094,-5.6117,-5.6117,-5.6084,-5.6079,-5.6134,-5.614,-5.6148,-5.6262,-5.6158,-5.6163,-5.6166,-5.6408,-5.6412,-5.6416,0,0,0,0,0,0,-5.5976,-5.599,-5.6102,-5.6047,-5.606,-5.6063,-5.6098,-5.6097,-5.6116,-5.6122,-5.6121,-5.6104,-5.6131,-5.6141,-5.6213,-5.6263,-5.6165,-5.617,-5.6403,-5.6409,-5.6414,-5.6492,0,0,0,0,0,0,-5.5971,-5.5989,-5.6027,-5.6049,-5.6064,-5.6169,-5.6101,-5.61,-5.6125,-5.6118,-5.614,-5.614,-5.6129,-5.6206,-5.6218,-5.6268,-5.6174,-5.6399,-5.6406,-5.6412,-5.6485,-5.6499,-5.6511,0,0,0,0,0,-5.5966,-5.6046,-5.6029,-5.6044,-5.6112,-5.6172,-5.618,-5.6168,-5.613,-5.6167,-5.6171,-5.614,-5.6256,-5.6214,-5.6227,-5.6279,-5.6396,-5.6404,-5.6412,-5.6479,-5.6496,-5.6511,0,0,0,0,0,0,-5.6028,-5.6048,-5.603,-5.612,-5.6145,-5.6162,-5.6209,-5.6187,-5.6222,-5.6214,-5.6195,-5.62,-5.6277,-5.6285,-5.6238,-5.6374,-5.6319,-5.633,-5.6365,-5.6382,-5.6395,-5.6391,-5.6178,0,0,0,0,0,-5.6052,-5.6102,-5.6116,-5.6194,-5.6207,-5.6207,-5.6232,-5.6221,-5.6245,-5.6254,-5.6264,-5.6287,-5.6328,-5.6356,-5.6394,-5.6486,-5.6489,-5.6528,-5.6542,-5.6553,-5.6562,-5.661,-5.6627,-5.6442,-5.6442,-5.6442,0,0,-5.6103,-5.612,-5.6152,-5.6207,-5.6225,-5.6274,-5.6215,-5.627,-5.6306,-5.6262,-5.6331,-5.6339,-5.6363,-5.6446,-5.6482,-5.6455,-5.6614,-5.6563,-5.6571,-5.6575,-5.662,-5.6637,-5.6653,-5.6447,-5.6446,-5.6446,0,0,-5.622,-5.6239,-5.6305,-5.6325,-5.6354,-5.6353,-5.6369,-5.639,-5.6394,-5.6464,-5.6432,-5.6473,-5.6545,-5.6564,-5.6583,-5.6708,-5.6679,-5.672,-5.679,-5.6837,-5.6851,-5.6864,-5.6907,-5.6923,-5.673,-5.673,-5.673,0,-5.6278,-5.6353,-5.6341,-5.6399,-5.6423,-5.6388,-5.6454,-5.6473,-5.6512,-5.6529,-5.6499,-5.6589,-5.6602,-5.6688,-5.6719,-5.6736,-5.6752,-5.6717,-5.685,-5.6863,-5.6875,-5.6916,-5.6932,-5.6735,-5.6734,-5.6734,-5.6733,0,-5.6423,-5.6476,-5.6526,-5.6567,-5.6597,-5.6658,-5.6654,-5.6685,-5.6671,-5.6673,-5.6744,-5.676,-5.6801,-5.682,-5.6806,-5.6904,-5.6886,-5.6854,-5.6798,-5.6897,-5.6936,-5.6951,-5.6742,-5.674,-5.6739,-5.6737,0,0,-5.6579,-5.6614,-5.6633,-5.6651,-5.668,-5.672,-5.6779,-5.6821,-5.6848,-5.6876,-5.6924,-5.6987,-5.6957,-5.6978,-5.6966,-5.7008,-5.7104,-5.697,-5.697,-5.6993,-5.7211,-5.7235,-5.7253,-5.7087,-5.709,-5.7092,-5.7209,0,-5.6696,-5.6802,-5.6793,-5.6892,-5.6939,-5.6907,-5.6958,-5.6981,-5.6984,-5.7023,-5.7026,-5.707,-5.7028,-5.7041,-5.7081,-5.7084,-5.7147,-5.7076,-5.7129,-5.7131,-5.7123,-5.7274,-5.7299,-5.7408,-5.7224,-5.7226,-5.7228,0,-5.6847,-5.6883,-5.6987,-5.7009,-5.7029,-5.7076,-5.7113,-5.7152,-5.7177,-5.7176,-5.7201,-5.7182,-5.7239,-5.7184,-5.7262,-5.7213,-5.7235,-5.724,-5.7244,-5.7247,-5.7185,-5.728,-5.7443,-5.7459,-5.7252,-5.725,-5.7248,0,-5.6949,-5.7023,-5.7095,-5.7112,-5.714,-5.7173,-5.7186,-5.7208,-5.7234,-5.7266,-5.7282,-5.732,-5.7341,-5.737,-5.7361,-5.7321,-5.744,-5.7384,-5.744,-5.744,-5.7465,-5.7463,-5.7633,-5.7481,-5.7481,-5.7481,-5.748,0,-5.708,-5.7144,-5.7142,-5.7186,-5.7257,-5.7245,-5.7315,-5.7323,-5.7343,-5.7387,-5.736,-5.7401,-5.7388,-5.7427,-5.742,-5.7486,-5.7495,-5.7495,-5.7492,-5.7497,-5.7497,-5.7509,-5.7501,-5.7485,-5.7484,-5.7483,-5.7482,0,-5.7205,-5.7206,-5.7282,-5.7304,-5.7311,-5.7362,-5.7379,-5.7419,-5.7421,-5.7476,-5.7489,-5.749,-5.7536,-5.753,-5.7581,-5.7576,-5.7657,-5.7645,-5.7649,-5.7646,-5.7701,-5.7696,-5.7884,-5.7907,-5.7742,-5.7743,-5.7745,0,-5.7288,-5.7338,-5.7365,-5.7393,-5.7409,-5.7455,-5.7482,-5.7472,-5.7501,-5.7533,-5.7569,-5.7613,-5.7647,-5.7721,-5.7725,-5.7763,-5.7752,-5.7815,-5.7757,-5.776,-5.7751,-5.7748,-5.7752,-5.7826,-5.7828,-5.7829,-5.7831,0,-5.7435,-5.7433,-5.7474,-5.7516,-5.7549,-5.7581,-5.7609,-5.7633,-5.7626,-5.7659,-5.7707,-5.7734,-5.7786,-5.7829,-5.7865,-5.7875,-5.7852,-5.7849,-5.7864,-5.7868,-5.7868,-5.7868,-5.7679,-5.7845,-5.7843,-5.7842,-5.7841,-5.7841,-5.7541,-5.7583,-5.7609,-5.7655,-5.7676,-5.7704,-5.7743,-5.775,-5.7791,-5.7834,-5.7825,-5.7878,-5.79,-5.7947,-5.7962,-5.8001,-5.7978,-5.7999,-5.8004,-5.801,-5.8016,-5.7863,-5.8008,-5.8008,-5.8007,-5.8007,-5.8007,0,-5.7685,-5.77,-5.7743,-5.7785,-5.7821,-5.7799,-5.7829,-5.786,-5.7908,-5.7932,-5.7967,-5.802,-5.8062,-5.8071,-5.811,-5.814,-5.813,-5.8151,-5.8148,-5.815,-5.8035,-5.8018,-5.8158,-5.8158,-5.8158,-5.8158,-5.8158,-5.8158,-5.7764,-5.7834,-5.7836,-5.7915,-5.793,-5.7983,-5.8002,-5.8027,-5.8046,-5.8108,-5.8144,-5.815,-5.8167,-5.8207,-5.8244,-5.8245,-5.826,-5.8285,-5.8282,-5.8174,-5.8158,-5.8144,-5.8128,-5.8289,-5.8289,-5.8393,-5.8394,-5.8395]}]]